Location: Remedello Sotto
(45.2500°N, 10.3667°E)
Time: 05:03:53
(UTC+00:00)

Cosmos 1892 - Pass Details

Date: 03 February 2023
Orbit: 486 x 506 km, 82.5° (Epoch: 29 March)

Event Time Altitude Azimuth Distance (km) Brightness Sun altitude
Rises 18:04:19 0° 209° (SSW) 2,568 6.7 -17.1°
Reaches altitude 10° 18:06:33 10° 219° (SW) 1,696 5.9 -17.5°
Maximum altitude 18:09:57 33° 285° (WNW) 858 4.4 -18.1°
Drops below altitude 10° 18:13:24 10° 351° (N) 1,725 5.4 -18.7°
Sets 18:15:41 0° 1° (N) 2,620 6.2 -19.1°
